Location: Beaurecueil
(43.5122°N, 5.5450°E)
Time: 13:56:59
(UTC+00:00)

OPS 6432 - Pass Details

Date: 18 September 2020
Orbit: 369 x 1718 km, 63.3° (Epoch: 14 September)

Event Time Altitude Azimuth Distance (km) Brightness Sun altitude
Rises 18:57:41 0° 324° (NW) 2,294 8.9 -14.4°
Reaches altitude 10° 18:59:31 10° 324° (NW) 1,499 7.8 -14.7°
Maximum altitude 19:02:45 86° 51° (NE) 487 4.4 -15.2°
Enters shadow 19:05:00 24° 142° (SE) 1,134 5.9 -15.6°
